Total_Precipitation_Accumulation
0.73 0.75 0.69 0.73 0.69 0.68 0.70 0.71 0.59 0.56 0.54 0.44 0.41 0.43 0.46 0.40 0.46 0.49 0.56 0.69 0.97 1.22 1.18 1.05 0.92 0.76 0.68 0.64 0.60 0.60 0.65 0.63 0.60 0.60 0.58 0.53 0.58 0.59 0.50 0.50 0.58 0.55 0.51
0.62 0.74 0.72 0.77 0.69 0.71 0.79 0.71 0.64 0.65 0.64 0.54 0.44 0.45 0.47 0.42 0.47 0.53 0.58 0.71 0.87 1.20 1.43 1.35 1.24 1.06 0.85 0.71 0.63 0.65 0.61 0.56 0.56 0.58 0.52 0.45 0.46 0.46 0.41 0.44 0.52 0.55 0.53
0.62 0.74 0.78 0.77 0.74 0.77 0.81 0.83 0.82 0.77 0.68 0.59 0.51 0.48 0.46 0.46 0.50 0.53 0.55 0.70 0.70 0.76 1.09 1.40 1.48 1.40 1.13 0.91 0.74 0.62 0.59 0.55 0.52 0.53 0.51 0.40 0.38 0.36 0.36 0.38 0.45 0.45 0.47
0.67 0.87 0.92 0.80 0.85 0.95 0.99 1.00 0.96 0.87 0.77 0.72 0.71 0.61 0.52 0.49 0.52 0.56 0.56 0.59 0.56 0.49 0.57 0.73 0.89 1.08 1.25 1.22 1.01 0.76 0.67 0.55 0.47 0.48 0.45 0.37 0.31 0.29 0.31 0.36 0.37 0.40 0.45
0.89 1.06 1.13 1.04 1.01 1.15 1.12 1.01 1.01 1.01 0.91 0.88 0.87 0.83 0.67 0.57 0.56 0.55 0.61 0.69 0.66 0.57 0.57 0.50 0.54 0.64 0.91 1.11 1.14 1.01 0.81 0.63 0.50 0.46 0.41 0.30 0.25 0.26 0.28 0.29 0.30 0.37 0.41
1.13 1.28 1.37 1.33 1.29 1.39 1.38 1.25 1.31 1.30 1.18 1.21 1.11 0.98 0.85 0.78 0.74 0.70 0.69 0.75 0.77 0.67 0.65 0.54 0.50 0.44 0.56 0.75 0.93 0.99 0.88 0.73 0.60 0.49 0.41 0.31 0.24 0.23 0.25 0.29 0.29 0.33 0.36
1.52 1.63 1.59 1.80 1.87 1.84 1.83 1.76 1.86 1.87 1.59 1.43 1.65 1.60 1.19 0.91 0.81 0.82 0.82 0.81 0.81 0.78 0.76 0.71 0.59 0.48 0.41 0.46 0.55 0.77 0.83 0.78 0.70 0.59 0.48 0.37 0.29 0.25 0.23 0.28 0.32 0.34 0.36
1.86 1.79 1.86 2.06 2.11 2.20 2.28 2.12 2.22 2.27 1.95 1.65 1.99 2.35 1.85 1.44 0.91 0.72 0.79 0.85 0.90 0.88 0.84 0.74 0.69 0.61 0.49 0.47 0.36 0.49 0.70 0.79 0.77 0.71 0.62 0.51 0.38 0.29 0.24 0.25 0.31 0.38 0.36
2.26 2.14 2.09 2.22 2.23 2.29 2.45 2.48 2.42 2.46 2.35 2.06 2.03 2.41 2.22 1.88 1.48 0.92 0.80 0.86 0.96 0.99 0.99 0.97 0.87 0.78 0.65 0.62 0.57 0.46 0.46 0.60 0.77 0.78 0.74 0.63 0.51 0.41 0.32 0.30 0.33 0.36 0.33
2.42 2.37 2.31 2.38 2.37 2.32 2.41 2.48 2.47 2.64 2.78 2.49 2.26 2.03 1.90 1.89 1.86 1.42 1.00 0.91 1.02 1.08 1.11 1.01 0.99 0.98 0.92 0.78 0.74 0.57 0.47 0.46 0.66 0.81 0.83 0.82 0.71 0.55 0.45 0.39 0.40 0.39 0.37
2.13 2.11 2.22 2.37 2.37 2.34 2.35 2.51 2.63 2.79 2.74 2.64 2.49 2.34 2.15 1.95 1.60 1.63 1.50 1.24 1.17 1.07 1.13 1.21 1.16 1.16 1.11 1.07 1.07 0.77 0.58 0.46 0.51 0.72 0.84 0.89 0.86 0.74 0.63 0.51 0.45 0.44 0.46
1.94 1.86 1.95 2.05 2.13 2.18 2.17 2.21 2.36 2.50 2.65 2.77 2.68 2.50 2.36 2.21 2.01 1.87 1.58 1.43 1.47 1.30 1.18 1.17 1.20 1.22 1.27 1.24 1.14 1.10 0.78 0.57 0.46 0.53 0.66 0.78 0.85 0.86 0.81 0.73 0.62 0.54 0.54
1.85 1.80 1.76 1.84 1.91 1.95 2.06 2.21 2.19 2.21 2.37 2.55 2.54 2.47 2.44 2.21 2.09 2.12 1.94 1.61 1.52 1.37 1.28 1.21 1.13 1.16 1.16 1.20 1.26 1.23 0.90 0.74 0.55 0.46 0.49 0.52 0.63 0.70 0.78 0.88 0.96 0.92 0.90
1.47 1.45 1.50 1.60 1.75 1.85 1.95 2.06 2.09 2.05 2.12 2.18 2.22 2.30 2.35 2.24 2.02 1.95 1.97 2.05 1.79 1.52 1.35 1.23 1.14 1.11 1.10 1.09 1.21 1.28 0.90 0.77 0.65 0.54 0.48 0.43 0.46 0.52 0.60 0.70 0.88 1.04 1.23
1.08 1.13 1.18 1.32 1.52 1.65 1.71 1.81 1.93 1.94 1.98 1.97 2.03 2.09 2.07 2.10 1.97 1.82 1.78 1.85 1.93 1.73 1.58 1.41 1.20 1.03 1.09 1.06 1.09 0.92 0.81 0.81 0.69 0.60 0.54 0.45 0.40 0.42 0.43 0.50 0.58 0.63 0.70
0.97 1.06 1.08 1.15 1.26 1.36 1.47 1.64 1.77 1.84 1.86 1.81 1.80 1.86 1.88 1.93 1.95 1.93 1.90 1.85 1.80 1.73 1.66 1.48 1.21 0.96 1.03 1.09 1.17 0.97 0.93 1.01 0.84 0.68 0.57 0.50 0.45 0.40 0.37 0.38 0.37 0.35 0.37
0.95 1.00 1.05 1.10 1.13 1.23 1.28 1.39 1.53 1.64 1.65 1.64 1.56 1.60 1.71 1.76 1.92 1.96 1.93 1.86 1.84 1.76 1.59 1.51 1.29 1.07 1.05 1.10 1.15 1.05 1.05 1.02 0.86 0.77 0.66 0.59 0.52 0.48 0.45 0.42 0.39 0.33 0.29
0.79 0.90 1.04 1.03 1.04 1.09 1.17 1.27 1.37 1.41 1.47 1.42 1.33 1.33 1.45 1.54 1.67 1.80 1.90 1.81 1.81 1.76 1.72 1.66 1.44 1.23 1.15 1.13 1.14 1.10 1.00 0.98 0.97 0.90 0.75 0.67 0.61 0.57 0.53 0.47 0.44 0.41 0.38
0.74 0.88 1.02 1.14 1.06 0.97 1.05 1.14 1.20 1.22 1.22 1.16 1.13 1.13 1.18 1.25 1.36 1.50 1.64 1.73 1.73 1.68 1.77 1.75 1.53 1.30 1.19 1.14 1.14 1.11 1.03 1.06 1.00 0.96 0.88 0.76 0.70 0.64 0.59 0.57 0.53 0.49 0.44
0.61 0.68 0.82 0.94 0.99 0.95 0.90 0.91 0.96 1.11 1.10 1.00 0.91 0.90 0.93 0.95 1.03 1.17 1.31 1.47 1.61 1.73 1.82 1.83 1.67 1.38 1.20 1.17 1.17 1.21 1.20 1.10 1.10 1.01 0.98 0.91 0.89 0.84 0.74 0.66 0.59 0.54 0.50
0.47 0.54 0.70 0.88 0.94 0.94 0.98 0.97 0.90 0.93 0.98 0.98 0.91 0.82 0.76 0.74 0.82 0.91 1.02 1.26 1.45 1.60 1.74 1.79 1.71 1.53 1.34 1.25 1.18 1.14 1.23 1.32 1.31 1.17 1.11 1.01 0.93 0.82 0.74 0.67 0.59 0.52 0.46
0.42 0.45 0.53 0.69 0.85 0.84 0.99 1.04 0.98 0.90 0.90 0.88 0.88 0.88 0.87 0.81 0.70 0.64 0.68 0.85 1.08 1.28 1.45 1.56 1.58 1.47 1.31 1.25 1.29 1.27 1.23 1.26 1.35 1.23 1.19 1.25 1.14 0.98 0.86 0.75 0.70 0.63 0.55
0.38 0.41 0.47 0.59 0.74 0.89 0.92 0.83 0.92 0.92 0.89 0.89 0.86 0.85 0.89 0.88 0.90 0.78 0.71 0.69 0.74 0.90 1.12 1.31 1.33 1.30 1.36 1.30 1.25 1.19 1.13 1.09 1.10 1.15 1.17 1.24 1.20 1.07 0.93 0.88 0.90 0.80 0.73
0.37 0.39 0.43 0.49 0.57 0.76 0.81 0.72 0.90 0.93 0.94 0.92 0.91 0.92 0.94 0.98 0.95 1.03 1.00 0.90 0.85 0.86 0.95 0.88 0.97 1.23 1.31 1.30 1.29 1.31 1.30 1.19 1.10 1.06 1.03 1.09 1.07 1.01 0.90 0.84 0.88 0.80 0.73
0.39 0.38 0.38 0.41 0.44 0.53 0.62 0.60 0.74 0.88 0.97 0.96 0.86 0.87 0.91 0.94 1.13 1.17 1.07 1.05 0.98 0.94 1.08 1.09 1.09 1.13 1.17 1.16 1.16 1.24 1.28 1.22 1.17 1.07 0.97 0.89 0.89 0.96 0.97 0.89 0.86 0.88 0.81
0.46 0.41 0.39 0.37 0.40 0.42 0.55 0.45 0.57 0.74 0.90 0.99 0.92 0.89 1.04 1.00 1.01 0.97 0.92 1.11 1.08 0.98 0.89 0.86 0.88 0.93 0.94 0.98 1.03 1.04 1.15 1.14 1.06 1.06 0.94 0.85 0.85 0.91 0.94 0.86 0.77 0.75 0.76